When you browse on this site, cookies collect data to enhance your experience and personalize the content and advertising you see.
Visit our Privacy Policy to learn more. By continuing to use the site, you agree to this use of cookies and data.
  • In Latvia
  • List of Countries
  • For 7 days
  • Water Temperature
  • Weather Map
  • Weather Widgets
  • user-avatar
    Login

    Hourly Weather Freienbach

    Today, 18 August, Sunday

    Time Temperature Precipitation Wind Pressure Humidity
    00:00 +21°C° 0 mm 1 mps 722 mmHg 72%
    01:00 +22°C° 0 mm 1 mps 721 mmHg 71%
    02:00 +20°C° 0 mm 2 mps 721 mmHg 72%
    03:00 +20°C° 0 mm 2 mps 721 mmHg 72%
    04:00 +19°C° 0 mm 2 mps 721 mmHg 73%
    05:00 +20°C° 0 mm 2 mps 721 mmHg 73%
    06:00 +20°C° 0 mm 2 mps 721 mmHg 73%
    07:00 +21°C° 0 mm 2 mps 721 mmHg 73%
    08:00 +25°C° 0 mm 1 mps 721 mmHg 65%
    09:00 +27°C° 0 mm 1 mps 721 mmHg 57%
    10:00 +30°C° 0 mm 1 mps 721 mmHg 49%
    11:00 +31°C° 0 mm 1 mps 721 mmHg 46%
    12:00 +32°C° 0 mm 1 mps 721 mmHg 43%
    13:00 +34°C° 0 mm 2 mps 721 mmHg 41%
    14:00 +32°C° 0.1 mm 2 mps 721 mmHg 45%
    15:00 +31°C° 0.1 mm 2 mps 721 mmHg 50%
    16:00 +31°C° 0.1 mm 2 mps 720 mmHg 54%
    17:00 +28°C° 0.4 mm 2 mps 720 mmHg 64%
    18:00 +26°C° 0.4 mm 1 mps 721 mmHg 74%
    19:00 +24°C° 0.4 mm 1 mps 721 mmHg 84%
    20:00 +22°C° 1.6 mm 1 mps 721 mmHg 87%
    21:00 +21°C° 1.6 mm 1 mps 721 mmHg 90%
    22:00 +20°C° 1.6 mm 1 mps 722 mmHg 93%
    23:00 +20°C° 1.1 mm 1 mps 722 mmHg 93%

    Tomorrow, 19 August, Monday

    Time Temperature Precipitation Wind Pressure Humidity
    00:00 +20°C° 1.1 mm 1 mps 722 mmHg 93%
    01:00 +20°C° 1.1 mm 1 mps 722 mmHg 93%
    02:00 +20°C° 1.4 mm 1 mps 722 mmHg 94%
    03:00 +20°C° 1.4 mm 1 mps 722 mmHg 96%
    04:00 +20°C° 1.4 mm 1 mps 722 mmHg 97%
    05:00 +20°C° 1.9 mm 1 mps 723 mmHg 96%
    06:00 +20°C° 1.9 mm 1 mps 723 mmHg 96%
    07:00 +20°C° 1.9 mm 1 mps 723 mmHg 96%
    08:00 +21°C° 0.2 mm 1 mps 723 mmHg 90%
    09:00 +22°C° 0.2 mm 1 mps 724 mmHg 84%
    10:00 +23°C° 0.2 mm 1 mps 724 mmHg 78%
    11:00 +24°C° 0.5 mm 1 mps 724 mmHg 77%
    12:00 +24°C° 0.5 mm 1 mps 724 mmHg 76%
    13:00 +25°C° 0.5 mm 1 mps 724 mmHg 75%
    14:00 +25°C° 0.3 mm 1 mps 724 mmHg 74%
    15:00 +25°C° 0.3 mm 1 mps 724 mmHg 72%
    16:00 +25°C° 0.3 mm 1 mps 724 mmHg 71%
    17:00 +24°C° 0.2 mm 1 mps 724 mmHg 76%
    18:00 +23°C° 0.2 mm 1 mps 724 mmHg 81%
    19:00 +22°C° 0.2 mm 1 mps 724 mmHg 86%
    20:00 +19°C° 0.3 mm 0 mps 724 mmHg 88%
    21:00 +18°C° 0.3 mm 0 mps 724 mmHg 90%
    22:00 +17°C° 0.3 mm 0 mps 724 mmHg 92%
    23:00 +17°C° 0.4 mm 0 mps 724 mmHg 93%

    Day after tomorrow, 20 August, Tuesday

    Time Temperature Precipitation Wind Pressure Humidity
    00:00 +17°C° 0.4 mm 0 mps 724 mmHg 94%
    01:00 +17°C° 0.4 mm 0 mps 724 mmHg 95%
    02:00 +17°C° 0.3 mm 0 mps 724 mmHg 96%
    03:00 +16°C° 0.3 mm 0 mps 724 mmHg 96%
    04:00 +16°C° 0.3 mm 0 mps 724 mmHg 96%
    05:00 +16°C° 0.2 mm 0 mps 724 mmHg 96%
    06:00 +17°C° 0.2 mm 0 mps 724 mmHg 97%
    07:00 +17°C° 0.2 mm 0 mps 725 mmHg 97%
    08:00 +19°C° 0.1 mm 1 mps 725 mmHg 96%
    09:00 +20°C° 0.1 mm 1 mps 725 mmHg 95%
    10:00 +20°C° 0.1 mm 1 mps 725 mmHg 94%
    11:00 +20°C° 0.8 mm 1 mps 725 mmHg 95%
    12:00 +19°C° 0.8 mm 2 mps 725 mmHg 96%
    13:00 +18°C° 0.8 mm 2 mps 725 mmHg 97%
    14:00 +18°C° 2.4 mm 2 mps 725 mmHg 97%
    15:00 +17°C° 2.4 mm 2 mps 725 mmHg 98%
    16:00 +17°C° 2.4 mm 2 mps 726 mmHg 98%
    17:00 +16°C° 3.4 mm 1 mps 726 mmHg 98%
    18:00 +16°C° 3.4 mm 1 mps 726 mmHg 98%
    19:00 +15°C° 3.4 mm 1 mps 727 mmHg 98%
    20:00 +15°C° 2.7 mm 1 mps 727 mmHg 98%
    21:00 +15°C° 2.7 mm 1 mps 727 mmHg 98%
    22:00 +14°C° 2.7 mm 1 mps 728 mmHg 98%
    23:00 +14°C° 3 mm 1 mps 728 mmHg 98%

    21 August, Wednesday

    Time Temperature Precipitation Wind Pressure Humidity
    00:00 +14°C° 3 mm 1 mps 728 mmHg 98%
    01:00 +14°C° 3 mm 1 mps 728 mmHg 98%
    02:00 +14°C° 2 mm 1 mps 728 mmHg 98%
    03:00 +14°C° 2 mm 1 mps 728 mmHg 98%
    04:00 +14°C° 2 mm 1 mps 728 mmHg 98%
    05:00 +14°C° 0.3 mm 1 mps 728 mmHg 98%
    06:00 +14°C° 0.3 mm 1 mps 728 mmHg 97%
    07:00 +14°C° 0.3 mm 1 mps 728 mmHg 97%
    08:00 +15°C° 0 mm 1 mps 728 mmHg 93%
    09:00 +16°C° 0 mm 1 mps 728 mmHg 89%
    10:00 +17°C° 0 mm 2 mps 727 mmHg 85%
    11:00 +18°C° 0 mm 2 mps 727 mmHg 80%
    12:00 +19°C° 0 mm 2 mps 727 mmHg 74%
    13:00 +21°C° 0 mm 2 mps 727 mmHg 69%
    14:00 +21°C° 0 mm 2 mps 727 mmHg 70%
    15:00 +21°C° 0 mm 2 mps 726 mmHg 71%
    16:00 +21°C° 0 mm 3 mps 726 mmHg 72%
    17:00 +20°C° 0 mm 2 mps 726 mmHg 77%
    18:00 +19°C° 0 mm 2 mps 726 mmHg 82%
    19:00 +18°C° 0 mm 2 mps 727 mmHg 87%
    20:00 +18°C° 0 mm 1 mps 727 mmHg 89%
    21:00 +16°C° 0 mm 1 mps 727 mmHg 92%
    22:00 +15°C° 0 mm 1 mps 727 mmHg 95%
    23:00 +15°C° 0 mm 1 mps 727 mmHg 95%

    22 August, Thursday

    Time Temperature Precipitation Wind Pressure Humidity
    00:00 +13°C° 0 mm 0 mps 727 mmHg 95%
    01:00 +13°C° 0 mm 0 mps 727 mmHg 95%
    02:00 +13°C° 0 mm 0 mps 726 mmHg 95%
    03:00 +13°C° 0 mm 0 mps 726 mmHg 94%
    04:00 +13°C° 0 mm 0 mps 726 mmHg 94%
    05:00 +14°C° 0 mm 0 mps 726 mmHg 93%
    06:00 +14°C° 0 mm 0 mps 727 mmHg 92%
    07:00 +15°C° 0 mm 0 mps 727 mmHg 92%
    08:00 +16°C° 0 mm 0 mps 727 mmHg 88%
    09:00 +19°C° 0 mm 1 mps 727 mmHg 85%
    10:00 +20°C° 0 mm 1 mps 727 mmHg 81%
    11:00 +20°C° 0 mm 1 mps 727 mmHg 79%
    12:00 +21°C° 0 mm 1 mps 727 mmHg 77%
    13:00 +21°C° 0 mm 2 mps 727 mmHg 75%
    14:00 +21°C° 0 mm 2 mps 727 mmHg 76%
    15:00 +21°C° 0 mm 2 mps 727 mmHg 76%
    16:00 +21°C° 0 mm 2 mps 727 mmHg 76%
    17:00 +21°C° 0 mm 1 mps 727 mmHg 81%
    18:00 +21°C° 0 mm 1 mps 727 mmHg 85%
    19:00 +20°C° 0 mm 1 mps 727 mmHg 90%
    20:00 +19°C° 0 mm 1 mps 727 mmHg 90%
    21:00 +19°C° 0 mm 1 mps 727 mmHg 91%
    22:00 +19°C° 0 mm 1 mps 727 mmHg 92%
    23:00 +18°C° 0 mm 1 mps 727 mmHg 92%

    23 August, Friday

    Time Temperature Precipitation Wind Pressure Humidity
    00:00 +16°C° 0 mm 1 mps 727 mmHg 93%
    01:00 +16°C° 0 mm 1 mps 727 mmHg 94%
    02:00 +15°C° 0 mm 1 mps 727 mmHg 93%
    03:00 +15°C° 0 mm 1 mps 726 mmHg 93%
    04:00 +14°C° 0 mm 1 mps 726 mmHg 92%
    05:00 +14°C° 0 mm 0 mps 726 mmHg 91%
    06:00 +15°C° 0 mm 0 mps 726 mmHg 90%
    07:00 +16°C° 0 mm 0 mps 726 mmHg 89%
    08:00 +18°C° 0 mm 0 mps 726 mmHg 83%
    09:00 +22°C° 0 mm 1 mps 726 mmHg 77%
    10:00 +23°C° 0 mm 1 mps 726 mmHg 71%
    11:00 +25°C° 0 mm 1 mps 726 mmHg 67%
    12:00 +26°C° 0 mm 1 mps 726 mmHg 64%
    13:00 +27°C° 0 mm 2 mps 726 mmHg 60%
    14:00 +27°C° 0.1 mm 2 mps 726 mmHg 61%
    15:00 +27°C° 0.1 mm 2 mps 726 mmHg 62%
    16:00 +27°C° 0.1 mm 2 mps 725 mmHg 63%
    17:00 +26°C° 0.1 mm 1 mps 725 mmHg 73%
    18:00 +24°C° 0.1 mm 1 mps 725 mmHg 82%
    19:00 +22°C° 0.1 mm 1 mps 725 mmHg 91%
    20:00 +21°C° 0 mm 1 mps 725 mmHg 91%
    21:00 +20°C° 0 mm 1 mps 725 mmHg 92%
    22:00 +19°C° 0 mm 1 mps 726 mmHg 92%
    23:00 +19°C° 0 mm 1 mps 725 mmHg 92%
    Show more